Location: Unspecified
(48.8656°N, 0.0000°E)
Time: 13:32:37
(UTC+00:00)

Altair - Pass Details

Date: 24 June 2019
Orbit: 1501 x 1683 km, 47.2° (Epoch: 20 July)

Event Time Altitude Azimuth Distance (km) Brightness Sun altitude
Rises 02:17:19 0° 290° (WNW) 4,859 10.0 -11.7°
Reaches altitude 10° 02:20:55 10° 280° (W) 3,893 9.4 -11.4°
Maximum altitude 02:29:05 30° 225° (SW) 2,674 8.2 -10.6°
Drops below altitude 10° 02:37:21 10° 170° (S) 3,937 9.2 -9.9°
Sets 02:41:02 0° 160° (SSE) 4,921 9.8 -9.5°
